Terminal Aerodrome Forecast
Issued by NWS Miami, FL

Home | Current Version | Previous Version | Text Only | Print | Product List | Glossary On
Versions: 1 2 3 4 5 6 7 8 9 10 11 12 13 14 15 16 17 18 19 20 21 22 23 24 25 26 27 28 29 30 31 32 33 34 35 36 37 38 39 40 41 42 43 44 45 46 47 48 49 50
000
FTUS42 KMFL 011743 AAC
TAFPBI
TAF AMD
KPBI 011743Z 0118/0218 24030KT P6SM -RA VCTS SCT030CB BKN045 BKN070
     FM011900 23003KT P6SM VCTS SCT030CB BKN045 BKN070
     FM020000 23003KT P6SM BKN250
     FM020600 27005KT P6SM SCT250=

USA.gov is the U.S. government's official web portal to all federal, state and local government web resources and services.